Weather History for New Richmond, WI

Change the Weather History Date:

Thursday, March 20, 2014

  Actual Average (KMSP) Record (KMSP)
Temperature  
Mean Temperature 26 °F 34 °F  
Max Temperature 41 °F 43 °F 66 °F (1938)
Min Temperature 12 °F 26 °F -9 °F (1965)
Degree Days  
Heating Degree Days 39 30  
Month to date heating degree days 694  
Since 1 July heating degree days 6484  
Cooling Degree Days 0 0  
Month to date cooling degree days 0  
Year to date cooling degree days 0  
Moisture  
Dew Point 24 °F    
Average Humidity 80    
Maximum Humidity 100    
Minimum Humidity 57    
Precipitation  
Precipitation 0.01 in 0.07 in 0.86 in (1921)
Month to date precipitation 1.13  
Year to date precipitation 2.80  
Snow  
Snow 0.00 in 0.30 in 7.00 in (1886)
Month to date snowfall 7.7  
Since 1 July snowfall 49.4  
Snow Depth -    
Sea Level Pressure  
Sea Level Pressure 29.97 in    
Wind  
Wind Speed 4 mph (South)    
Max Wind Speed 12 mph    
Max Gust Speed -    
Visibility 8 miles    
Events Fog    
T = Trace of Precipitation, MM = Missing Value Source: NWS Daily Summary

Daily Weather History Graph

Daily Weather History Graph

Search for Another Location

Airport:

Trip Planner

Search our weather history database for the weather conditions in past years. The results will help you decide how hot, cold, wet, or windy it might be!

Date:

Astronomy

Mar. 20, 2014 Rise Set
Actual Time 7:13 AM CDT 7:22 PM CDT
Civil Twilight 6:43 AM CDT 7:52 PM CDT
Nautical Twilight 6:09 AM CDT 8:26 PM CDT
Astronomical Twilight 5:34 AM CDT 9:02 PM CDT
Moon 11:54 PM CDT (3/20) 9:09 AM CDT (3/20)
Length of Visible Light 13h 08m
Length of Day
12h 09m
Waning Gibbous, 84% of the Moon is Illuminated
Mar 20
Waning Gibbous
Mar 23
Last Quarter
Mar 30
New
Apr 7
First Quarter
Apr 15
Full

Hourly Weather History & Observations

Time (CDT) Temp. Windchill Dew Point Humidity Pressure Visibility Wind Dir Wind Speed Gust Speed Precip Events Conditions
12:15 AM 27.1 °F 19.7 °F 20.5 °F 76% 29.96 in 10.0 mi West 6.9 mph - N/A   Clear
12:35 AM 26.1 °F 19.4 °F 20.3 °F 79% 29.96 in 10.0 mi West 5.8 mph - N/A   Clear
12:55 AM 25.3 °F 18.5 °F 19.9 °F 80% 29.96 in 10.0 mi West 5.8 mph - N/A   Clear
1:15 AM 25.0 °F 17.1 °F 19.9 °F 81% 29.96 in 10.0 mi West 6.9 mph - N/A   Scattered Clouds
1:35 AM 25.2 °F 18.3 °F 20.8 °F 84% 29.97 in 10.0 mi West 5.8 mph - N/A   Overcast
1:55 AM 26.2 °F 20.7 °F 22.1 °F 84% 29.97 in 10.0 mi WNW 4.6 mph - N/A   Overcast
2:15 AM 25.7 °F 20.1 °F 21.9 °F 86% 29.97 in 10.0 mi WNW 4.6 mph - N/A   Mostly Cloudy
2:35 AM 24.1 °F 18.2 °F 20.7 °F 87% 29.97 in 10.0 mi West 4.6 mph - N/A   Scattered Clouds
2:55 AM 23.4 °F 18.9 °F 22.6 °F 97% 29.97 in 10.0 mi WNW 3.5 mph - N/A   Mostly Cloudy
3:15 AM 20.7 °F - 20.3 °F 99% 29.97 in 7.0 mi Calm Calm - N/A   Scattered Clouds
3:35 AM 19.0 °F - 19.0 °F 100% 29.97 in 3.0 mi Calm Calm - N/A   Clear
3:55 AM 17.4 °F - 17.4 °F 100% 29.97 in 2.5 mi Calm Calm - N/A   Clear
4:15 AM 15.3 °F - 15.3 °F 100% 29.97 in 0.5 mi Calm Calm - N/A Fog Light Freezing Fog
4:35 AM 14.2 °F - 13.8 °F 98% 29.97 in 1.2 mi Calm Calm - N/A   Mist
4:55 AM 12.7 °F - 12.0 °F 97% 29.97 in 4.0 mi Calm Calm - N/A   Clear
5:15 AM 13.6 °F - 13.1 °F 98% 29.98 in 5.0 mi Calm Calm - N/A   Mostly Cloudy
5:35 AM 16.2 °F 9.0 °F 16.2 °F 100% 29.99 in 7.0 mi SSW 4.6 mph - N/A   Overcast
5:55 AM 19.9 °F 14.9 °F 19.9 °F 100% 29.99 in 7.0 mi South 3.5 mph - N/A   Overcast
6:15 AM 23.0 °F 18.4 °F 23.0 °F 100% 29.98 in 7.0 mi South 3.5 mph - N/A   Overcast
6:35 AM 23.0 °F - 23.0 °F 100% 29.99 in 5.0 mi Calm Calm - N/A   Overcast
6:55 AM 23.9 °F - 23.9 °F 100% 29.99 in 7.0 mi Calm Calm - N/A   Overcast
7:15 AM 23.9 °F - 23.9 °F 100% 30.00 in 5.0 mi Calm Calm - N/A   Overcast
7:35 AM 24.8 °F - 24.8 °F 100% 30.00 in 4.0 mi Calm Calm - N/A   Overcast
7:55 AM 24.8 °F 20.5 °F 24.8 °F 100% 30.00 in 4.0 mi South 3.5 mph - N/A   Overcast
8:15 AM 25.7 °F 20.1 °F 25.7 °F 100% 30.00 in 4.0 mi SSW 4.6 mph - N/A   Overcast
8:35 AM 25.7 °F 21.5 °F 25.7 °F 100% 30.00 in 4.0 mi SW 3.5 mph - N/A   Overcast
8:55 AM 26.6 °F - 26.6 °F 100% 30.00 in 4.0 mi Calm Calm - N/A   Overcast
9:15 AM 27.3 °F - 26.6 °F 97% 30.00 in 5.0 mi Calm Calm - N/A   Overcast
9:35 AM 28.2 °F 24.4 °F 27.0 °F 95% 30.01 in 5.0 mi WSW 3.5 mph - N/A   Overcast
9:55 AM 28.6 °F - 27.3 °F 95% 30.02 in 5.0 mi Calm Calm - N/A   Overcast
10:15 AM 29.3 °F - 27.7 °F 94% 30.02 in 5.0 mi Calm Calm - 0.01 in   Overcast
10:35 AM 30.2 °F - 28.0 °F 92% 30.01 in 5.0 mi Calm Calm - 0.01 in   Overcast
10:55 AM 31.5 °F - 28.4 °F 88% 30.01 in 7.0 mi Calm Calm - 0.01 in   Mostly Cloudy
11:15 AM 32.0 °F - 28.8 °F 88% 30.01 in 7.0 mi Calm Calm - N/A   Overcast
11:35 AM 33.1 °F - 29.3 °F 86% 30.00 in 7.0 mi Calm Calm - N/A   Mostly Cloudy
11:55 AM 34.0 °F 31.0 °F 28.8 °F 81% 30.00 in 7.0 mi SE 3.5 mph - N/A   Scattered Clouds
12:15 PM 34.7 °F 29.6 °F 27.5 °F 75% 29.99 in 7.0 mi SE 5.8 mph - N/A   Clear
12:35 PM 35.8 °F 31.9 °F 28.0 °F 73% 29.99 in 7.0 mi East 4.6 mph - N/A   Mostly Cloudy
12:55 PM 36.7 °F 34.1 °F 28.6 °F 72% 29.99 in 10.0 mi South 3.5 mph - N/A   Mostly Cloudy
1:15 PM 37.4 °F - 28.4 °F 70% 29.99 in 10.0 mi Calm Calm - N/A   Mostly Cloudy
1:35 PM 37.0 °F - 28.2 °F 70% 29.98 in 10.0 mi Calm Calm - N/A   Mostly Cloudy
1:55 PM 38.8 °F 33.8 °F 28.2 °F 66% 29.97 in 10.0 mi South 6.9 mph - N/A   Overcast
2:15 PM 39.2 °F 34.2 °F 28.4 °F 65% 29.97 in 10.0 mi SSE 6.9 mph - N/A   Mostly Cloudy
2:35 PM 38.7 °F 33.6 °F 28.4 °F 67% 29.97 in 10.0 mi South 6.9 mph - N/A   Mostly Cloudy
2:55 PM 38.8 °F 32.6 °F 28.0 °F 65% 29.97 in 10.0 mi South 9.2 mph - N/A   Mostly Cloudy
3:15 PM 38.7 °F 34.3 °F 27.5 °F 64% 29.96 in 10.0 mi South 5.8 mph - N/A   Mostly Cloudy
3:35 PM 40.5 °F 36.5 °F 27.0 °F 59% 29.95 in 10.0 mi SSE 5.8 mph - N/A   Mostly Cloudy
3:55 PM 40.3 °F 38.2 °F 26.4 °F 58% 29.94 in 10.0 mi SSW 3.5 mph - N/A   Mostly Cloudy
4:15 PM 40.3 °F 35.5 °F 26.4 °F 58% 29.94 in 10.0 mi SSE 6.9 mph - N/A   Scattered Clouds
4:35 PM 39.0 °F 33.4 °F 25.9 °F 59% 29.94 in 10.0 mi SSE 8.1 mph - N/A   Scattered Clouds
4:55 PM 39.2 °F 32.5 °F 26.2 °F 60% 29.94 in 10.0 mi South 10.4 mph - N/A   Mostly Cloudy
5:15 PM 39.2 °F 32.0 °F 26.2 °F 60% 29.94 in 10.0 mi South 11.5 mph - N/A   Mostly Cloudy
5:35 PM 40.1 °F 33.6 °F 26.2 °F 58% 29.94 in 10.0 mi South 10.4 mph - N/A   Scattered Clouds
5:55 PM 39.2 °F 33.0 °F 25.7 °F 58% 29.94 in 10.0 mi South 9.2 mph - N/A   Clear
6:15 PM 39.7 °F 33.7 °F 25.5 °F 57% 29.94 in 10.0 mi South 9.2 mph - N/A   Clear
6:35 PM 39.2 °F 33.0 °F 25.7 °F 58% 29.94 in 10.0 mi South 9.2 mph - N/A   Clear
6:55 PM 38.5 °F 33.4 °F 26.2 °F 61% 29.94 in 10.0 mi South 6.9 mph - N/A   Clear
7:15 PM 37.9 °F 33.5 °F 26.4 °F 63% 29.94 in 10.0 mi South 5.8 mph - N/A   Scattered Clouds
7:35 PM 37.4 °F 33.8 °F 26.8 °F 66% 29.94 in 10.0 mi South 4.6 mph - N/A   Overcast
7:55 PM 36.5 °F 31.8 °F 27.1 °F 69% 29.94 in 10.0 mi SSW 5.8 mph - N/A   Overcast
8:15 PM 36.5 °F 31.8 °F 27.3 °F 69% 29.95 in 10.0 mi South 5.8 mph - N/A   Overcast
8:35 PM 36.5 °F 31.8 °F 27.0 °F 68% 29.95 in 10.0 mi South 5.8 mph - N/A   Overcast
8:55 PM 35.6 °F 29.9 °F 26.6 °F 70% 29.95 in 10.0 mi South 6.9 mph - N/A   Mostly Cloudy
9:15 PM 35.1 °F 29.3 °F 25.7 °F 69% 29.95 in 10.0 mi South 6.9 mph - N/A   Scattered Clouds
9:35 PM 33.8 °F 29.6 °F 25.5 °F 72% 29.95 in 10.0 mi South 4.6 mph - N/A   Scattered Clouds
9:55 PM 33.4 °F 29.1 °F 25.3 °F 72% 29.95 in 10.0 mi SSE 4.6 mph - N/A   Clear
10:15 PM 32.9 °F 28.5 °F 24.8 °F 72% 29.95 in 10.0 mi SSE 4.6 mph - N/A   Clear
10:35 PM 32.4 °F 27.9 °F 24.6 °F 73% 29.95 in 10.0 mi South 4.6 mph - N/A   Clear
10:55 PM 31.6 °F 26.0 °F 24.6 °F 75% 29.94 in 10.0 mi SSE 5.8 mph - N/A   Clear
11:15 PM 32.0 °F 27.5 °F 24.6 °F 74% 29.94 in 10.0 mi SSE 4.6 mph - N/A   Clear
11:35 PM 31.5 °F 25.8 °F 24.3 °F 75% 29.93 in 10.0 mi SE 5.8 mph - N/A   Clear
11:55 PM 30.2 °F 23.4 °F 23.9 °F 77% 29.91 in 10.0 mi SE 6.9 mph - N/A   Clear